This is the latest recevied weather packets stored in our database for station/object KM5R. If no packets are shown the sender has not sent any weather packets the latest 10 day(s).
| Time | Temp. | Humidity | Pressure | Rain* | Wind** | Luminosity | Snow |
|---|---|---|---|---|---|---|---|
| 1777670530 | 12.78° C | 81% | 1016.9 hPa | 0 mm | - | 150 W/m² | - |
| 1777670227 | 12.78° C | 80% | 1017.3 hPa | 0 mm | - | 94 W/m² | - |
| 1777669925 | 12.78° C | 79% | 1017.1 hPa | 0 mm | - | 91 W/m² | - |
| 1777669622 | 12.22° C | 79% | 1017.2 hPa | 0 mm | - | 73 W/m² | - |
| 1777669318 | 12.22° C | 80% | 1017.1 hPa | 0 mm | - | 73 W/m² | - |
| 1777669014 | 12.22° C | 80% | 1017 hPa | 0 mm | - | 86 W/m² | - |
| 1777668712 | 12.22° C | 81% | 1016.9 hPa | 0 mm | - | 93 W/m² | - |
| 1777668408 | 12.22° C | 82% | 1016.8 hPa | 0 mm | - | 105 W/m² | - |
| 1777668104 | 12.22° C | 83% | 1016.7 hPa | 0 mm | - | 106 W/m² | - |
| 1777667801 | 11.67° C | 83% | 1016.6 hPa | 0 mm | - | 127 W/m² | - |
| 1777667499 | 12.22° C | 85% | 1016.9 hPa | 0 mm | - | 92 W/m² | - |
| 1777667195 | 12.22° C | 85% | 1016.7 hPa | 0 mm | - | 63 W/m² | - |
| 1777666893 | 12.78° C | 85% | 1016.8 hPa | 0 mm | - | 31 W/m² | - |
| 1777666589 | 12.22° C | 85% | 1017 hPa | 0 mm | - | 60 W/m² | - |
| 1777666286 | 12.22° C | 85% | 1017.3 hPa | 0 mm | - | 80 W/m² | - |
| 1777665983 | 12.22° C | 86% | 1017.1 hPa | 0 mm | - | 78 W/m² | - |
| 1777665681 | 12.22° C | 87% | 1017.1 hPa | 0 mm | - | 85 W/m² | - |
| 1777665378 | 12.22° C | 87% | 1016.6 hPa | 0 mm | - | 88 W/m² | - |
| 1777665073 | 12.78° C | 88% | 1016.6 hPa | 0 mm | - | 71 W/m² | - |
| 1777664769 | 12.22° C | 88% | 1016.3 hPa | 0 mm | - | 142 W/m² | - |
| 1777664465 | 12.22° C | 89% | 1016.3 hPa | 0 mm | - | 167 W/m² | - |
| 1777664163 | 12.22° C | 89% | 1016.6 hPa | 0 mm | - | 188 W/m² | - |
| 1777663861 | 11.67° C | 89% | 1016.6 hPa | 0 mm | - | 175 W/m² | - |
| 1777663557 | 11.67° C | 89% | 1016.5 hPa | 0 mm | - | 155 W/m² | - |
| 1777663255 | 11.67° C | 89% | 1016.6 hPa | 1.78 mm | - | 122 W/m² | - |
* Rain latest hour (hover to see other rain measurements)
** Current wind speed in m/s (hover to see current wind gust speed)